Content
SEND FEEDBACK

Daily
Averages
Monthly
Summary
United States of America

MOOSE PASS, ALASKA


Home > North America > United States > Alaska
Elevation: 460 meters     Latitude: 60 28N     Longitude: 149 23W

WEATHER
 
SELECT A DAY
Number of Records: 198,283;   Date Range: 1/1/95 - 8/28/14
 
SHARE

PRINT THIS DATA

[ ← Previous Day ]
WEATHER ALMANAC - 31 JANUARY, 2013
[ Next Day → ]
[ °F ]   °C
Weather ElementAverageHighLow
Temperature0.2 °C2.8 °C (1:53 pm)-3.3 °C (11:53 pm)
Dewpoint-0.3 °C1.7 °C (1:53 pm)-3.9 °C (11:53 pm)
Humidity97.1 %100 % (1:53 am)89 % (2:53 pm)
Barometer1010.8 hPa1013.9 hPa (11:53 pm)1006.8 hPa (12:15 am)
Wind Speed4 km/h11.1 km/h (8:53 pm)
Weather ElementAverage
Visibility12.7 km
Wind DirectionS (179.8 °)

Weather ElementTotal
Precipitation7.37 mm
Heating Degree Days18.6 (Base 18.3)
Averaged from 47 records on 31 January, 2013
WEATHER CONDITIONS BREAKOUT
WIND DIRECTION BREAKOUT
WEATHER BY HOUR - 31 JANUARY, 2013
[ °F ]   °C
Local TimeTemperatureDewpointHumidityBarometerVisibilityWind DirectionWind SpeedGust SpeedPrecipitationEventsConditions
12:15 AM1 °C0 °C93 %1006.8 hPa8 kmCalm0 mmOvercast
12:53 AM0.6 °C0 °C96 %1006.8 hPa9.7 kmCalm0.25 mmOvercast
1:53 AM0.6 °C0.6 °C100 %1007.1 hPa16.1 kmCalmOvercast
2:07 AM1 °C1 °C100 %1007.1 hPa16.1 kmCalmOvercast
2:25 AM1 °C0 °C93 %1007.1 hPa14.5 kmCalmOvercast
3:53 AM0.6 °C0 °C96 %1007.5 hPa4.8 kmCalmOvercast
4:53 AM0.6 °C0.6 °C100 %1007.5 hPa11.3 kmCalm0.25 mmRainLight Rain
5:53 AM0.6 °C0.6 °C100 %1007.8 hPa16.1 kmNNW (340°)7.4 km/h0.51 mmRainLight Rain
6:53 AM0.6 °C0.6 °C100 %1008.1 hPa16.1 kmNorth (350°)7.4 km/h0.25 mmOvercast
7:17 AM1 °C1 °C100 %1008.1 hPa16.1 kmNNW (340°)7.4 km/hOvercast
7:51 AM1 °C1 °C100 %1008.8 hPa16.1 kmNorth (10°)5.6 km/h0.25 mmOvercast
7:53 AM0.6 °C0.6 °C100 %1008.8 hPa16.1 kmCalm0.25 mmOvercast
8:32 AM1 °C1 °C100 %1008.8 hPa16.1 kmNNW (330°)7.4 km/h0.25 mmOvercast
8:51 AM1 °C1 °C100 %1008.8 hPa16.1 kmNNW (330°)5.6 km/h0.25 mmOvercast
8:53 AM1.1 °C0.6 °C96 %1008.8 hPa16.1 kmNNW (330°)5.6 km/h0.25 mmOvercast
9:30 AM1 °C1 °C100 %1009.1 hPa16.1 kmNorth (350°)5.6 km/h0.25 mmOvercast
9:45 AM1 °C1 °C100 %1009.5 hPa16.1 kmNorth (350°)7.4 km/h0.25 mmOvercast
9:53 AM1.1 °C0.6 °C96 %1009.5 hPa16.1 kmCalm0.25 mmOvercast
10:53 AM1.1 °C1.1 °C100 %1010.2 hPa16.1 kmCalm0.51 mmOvercast
11:53 AM1.7 °C1.1 °C96 %1010.8 hPa16.1 kmNNW (340°)5.6 km/h0.51 mmMostly Cloudy
12:15 PM2 °C1 °C93 %1010.8 hPa16.1 kmNorth (350°)7.4 km/hOvercast
12:27 PM1 °C1 °C100 %1010.8 hPa16.1 kmCalm0.25 mmOvercast
12:43 PM2 °C1 °C93 %1011.2 hPa16.1 kmNNW (330°)5.6 km/h0.25 mmOvercast
12:53 PM1.7 °C0.6 °C92 %1011.2 hPa16.1 kmCalm0.51 mmOvercast
1:53 PM2.8 °C1.7 °C93 %1011.5 hPa16.1 kmCalm1.27 mmOvercast
2:53 PM2.8 °C1.1 °C89 %1011.9 hPa16.1 kmNorth (360°)5.6 km/h0.76 mmOvercast
3:53 PM0.6 °C0 °C96 %1011.9 hPa16.1 kmNorth (350°)5.6 km/hMostly Cloudy
4:53 PM0.6 °C0 °C96 %1012.2 hPa16.1 kmWest (270°)5.6 km/hClear
5:20 PM-1 °C-1 °C100 %1012.5 hPa2.4 kmCalmClear
5:30 PM-1 °C-1 °C100 %1012.5 hPa3.2 kmCalmPartly Cloudy
5:53 PM-1.1 °C-1.7 °C96 %1012.9 hPa4 kmNNE (20°)7.4 km/hPartly Cloudy
6:00 PM-1 °C-2 °C93 %1012.9 hPa16.1 kmCalmClear
6:12 PM-2 °C-2 °C100 %1012.9 hPa2.9 kmNNW (330°)5.6 km/hPartly Cloudy
6:14 PM-1 °C-2 °C93 %1012.9 hPa4.8 kmNNW (330°)5.6 km/hPartly Cloudy
6:49 PM-2 °C-2 °C100 %1013.2 hPa2.4 kmCalmOvercast
6:51 PM-2 °C-2 °C100 %1013.2 hPa1.3 kmCalmOvercast
7:15 PM-2 °C-2 °C100 %1013.2 hPa1.3 kmCalmOvercast
7:18 PM-2 °C-2 °C100 %1013.2 hPa2.4 kmCalmOvercast
7:21 PM-1 °C-2 °C93 %1013.2 hPa6.4 kmNNW (340°)5.6 km/hOvercast
7:53 PM-0.6 °C-0.6 °C100 %1013.2 hPa16.1 kmNNW (340°)7.4 km/hOvercast
8:08 PM0 °C-1 °C93 %1013.5 hPa16.1 kmNNW (340°)7.4 km/hOvercast
8:53 PM-0.6 °C-1.1 °C96 %1013.5 hPa16.1 kmNNW (330°)11.1 km/hPartly Cloudy
9:24 PM-1 °C-1 °C100 %1013.5 hPa16.1 kmNNW (340°)11.1 km/hMostly Cloudy
9:51 PM-1 °C-2 °C93 %1013.5 hPa16.1 kmNNW (330°)9.3 km/hScattered Clouds
9:53 PM-1.1 °C-1.7 °C96 %1013.5 hPa16.1 kmNNW (330°)9.3 km/hPartly Cloudy
10:53 PM-0.6 °C-1.1 °C96 %1013.5 hPa16.1 kmNNW (340°)5.6 km/hClear
11:53 PM-3.3 °C-3.9 °C96 %1013.9 hPa16.1 kmNorth (350°)5.6 km/hClear
Hourly data recorded from PAWD, located 0 kilometers away from Moose Pass, Alaska







STORIES FROM OUR PARTNERS